Find Starlink 35091

NORAD ID: 65640 Int'l Des: 2025-210 Owner: SPXS Country: US Constellation: starlink operational
LEOCIRCULAR

Live Position

Loading 3D Globe...

About Starlink 35091

Description loading...

Upcoming Passes

Passes for default location (London). Set your location on the main map for personalized predictions.

Altitude History

Loading altitude history...

Two-Line Element Set

1 65640U 25210U 26105.26555151 .00005845 00000-0 20925-3 0 9998
2 65640 53.1593 136.9987 0001209 76.5470 283.5666 15.30208755 33337
Epoch: Apr 15, 2026 • Age: 34 hours

Current Status

Altitude 477.2 km
Velocity 7.63 km/s
Sub-Earth Point -6.86°S, 28.02°E
Launch Date Sep 18, 2025
Age 0.5 years
Type internet

Technical Details

Classification Payload
Mass 575.00 kg
Dry Mass 530.00 kg
Total Mass 575.00 kg
Length 0.30 m
Diameter 4.10 m
Span 29.00 m
Shape Box + pan
Manufacturer SPXS
Bus Type Starlink V2MO
Phase Status In Orbit
Owner/State SPXS/US

Most Searched